Volver al catálogo

QIANFAN-55

ActivoComunicacionesPO
NORAD 62785·PAYLOAD·🇨🇳 China

Lanzado Jan 23, 2025 desde Taiyuan Satellite Launch Center

Loading…

Próximos Pases (próximas 24 horas)

TLE

ActualizadoSource: Space-Track

Época: Sep 14, 2026, 21:10 UTC

1 62785U 25016A   26257.88255882  .00000032  00000-0  30707-4 0  9996
2 62785  88.9669  74.5431 0015496 270.6035  89.3341 13.51024610 84472

Sigue QIANFAN-55 en tiempo real con AllMySat

Download on the App Store